Location: La Fredeussais
(48.1780°N, 1.3980°W)
Time: 07:31:10
(UTC+00:00)

STARLINK-2672 - Pass Details

Date: 30 July 2021
Orbit: 547 x 548 km, 53.1° (Epoch: 19 September)

Event Time Altitude Azimuth Distance (km) Brightness Sun altitude
Rises 21:15:16 0° 289° (WNW) 2,718 8.3 -12.7°
Reaches altitude 10° 21:18:03 10° 270° (W) 1,820 6.9 -13.0°
Maximum altitude 21:20:50 18° 228° (SW) 1,394 5.7 -13.3°
Enters shadow 21:23:22 11° 188° (S) 1,746 5.8 -13.6°
